851  
ASUS43 KFSD 242310  
RWRFSD  
 
WEATHER ROUNDUP FOR SE SOUTH DAKOTA/SW MINNESOTA/NW IOWA  
NATIONAL WEATHER SERVICE SIOUX FALLS SD  
600 PM CDT FRI MAR 24 2017  
 
NOTE: "FAIR" INDICATES FEW OR NO CLOUDS BELOW 12,000 FEET WITH NO  
SIGNIFICANT WEATHER AND OR S TO VISIBILITY
.  
 
 
SDZ038>040-050-052>070-250000-  
SOUTHEAST SOUTH DAKOTA  
 
CITY SKY/WX TMP DP RH WIND PRES REMARKS
 
BROOKINGS CLOUDY 40 34 79 N15G23 30.09S  
CHAMBERLAIN CLOUDY 53 36 52 NE10 30.08F  
HURON MOSUNNY 46 35 65 NE13 30.11S  
MADISON CLOUDY 37 37 100 NE16G25 30.08S  
MITCHELL CLOUDY 46 37 71 N18 30.09F  
SIOUX FALLS CLOUDY 41 37 86 N18 30.07R  
WINNER FAIR 54 33 45 NE14 30.08S  
YANKTON CLOUDY 43 37 81 N14 30.06S  

 
 
MNZ071-072-080-081-089-090-097-098-250000-  
SOUTHWEST MINNESOTA  
 
CITY SKY/WX TMP DP RH WIND PRES REMARKS
 
FAIRMONT CLOUDY 43 39 86 N12G21 30.05F  
JACKSON CLOUDY 41 36 81 N21 30.05R  
LUVERNE CLOUDY 37 34 87 NE14G22 30.06R  
MARSHALL CLOUDY 38 35 89 N14 30.10F  
MONTEVIDEO CLOUDY 43 36 75 E13G18 30.14S  
PIPESTONE CLOUDY 37 34 87 NE21G28 30.05F FOG  
REDWOOD FALLS CLOUDY 40 34 79 NE10 30.10R  
TRACY CLOUDY 39 37 91 N14 30.09F  
WINDOM CLOUDY 39 37 93 N13G25 30.06F  
WORTHINGTON CLOUDY 39 37 92 N21 30.06R FOG  

 
 
IAZ001>003-012>014-020>022-031-032-NEZ013-014-SDZ071-250000-  
NORTHWEST IOWA  
 
CITY SKY/WX TMP DP RH WIND PRES REMARKS
 
CHEROKEE CLOUDY 42 39 91 N16 30.02S  
ESTHERVILLE CLOUDY 41 40 96 NE14 30.04S  
LE MARS CLOUDY 43 39 87 N12G21 30.04S  
ORANGE CITY CLOUDY 43 39 87 NE10G18 30.03S  
SHELDON CLOUDY 41 41 100 NE20 30.04R  
SIOUX CITY CLOUDY 43 39 86 NE15 30.03R  
SPENCER CLOUDY 42 39 89 NE18 30.05R  
STORM LAKE CLOUDY 41 39 93 N25 29.99R  

 
 
ABBREVIATIONS USED IN REMARKS  
TC - TEMPERATURE IN CELSIUS  
WCI - WIND CHILL INDEX  
HX - HEAT INDEX  
VSB - VISIBILITY  
 
 
 
CLICK HERE TO GO TO PREVIOUS BULLETINS.

The Nexlab SD Page
The Nexlab IA Page
The Nexlab MN Page
The Nexlab NE Page Main Text Page